This demonstration page uses our WeatherBlox Daily Observations layout. Learn more.

Left ArrowRight Arrow

34.16533, -84.80231

Hourly Observations for September 24, 2017

Temp ( °F °C ) Dew Point ( °F °C ) Humidity (%) Winds ( mph kmh ) Pressure ( in mb ) Visibility ( mi km ) Precip ( " mm )
12:53 am 00:53 Clear 63 17.2 63 17.2 100 100 Calm 30.01 1016 9 14 0.00 0.00
1:53 am 01:53 Clear 64 17.8 64 17.8 100 100 Calm 30.01 1016 8 13 0.00 0.00
2:53 am 02:53 Clear with Mist and Fog 63 17.2 63 17.2 100 100 Calm 30.01 1016 6 10 0.00 0.00
3:53 am 03:53 Clear 63 17.2 63 17.2 100 100 Calm 30.01 1016 8 13 0.00 0.00
4:00 am 04:00 Mostly Clear 62 16.7 62 16.7 100 100 Calm 30.03 1017 7 11 0.00 0.00
4:49 am 04:49 Mostly Cloudy with Mist and Fog 63 17 63 17 100 100 Calm 30.03 1017 3 4 0.00 0.00
4:53 am 04:53 Mostly Cloudy with Mist and Fog 62 16.7 62 16.7 100 100 Calm 30.02 1017 1 2 0.00 0.00
5:02 am 05:02 Mostly Cloudy with Mist and Fog 63 17.2 63 17.2 100 100 Calm 30.03 1017 1 1 0.00 0.00
5:24 am 05:24 Cloudy with Mist and Fog 63 17.2 63 17.2 100 100 Calm 30.03 1017 2 3 0.00 0.00
5:53 am 05:53 Mostly Cloudy with Mist and Fog 61 16.1 61 16.1 100 100 Calm 30.03 1017 2 2 0.00 0.00
5:57 am 05:57 Mostly Cloudy with Mist and Fog 61 16.1 61 16.1 100 100 Calm 30.03 1017 3 5 0.00 0.00
6:06 am 06:06 Partly Cloudy with Mist and Fog 61 16.1 61 16.1 100 100 Calm 30.03 1017 6 10 0.00 0.00
6:53 am 06:53 Mostly Cloudy 61 16.1 61 16.1 100 100 Calm 30.05 1018 8 13 0.00 0.00
7:53 am 07:53 Partly Cloudy 63 17.2 63 17.2 100 100 Calm 30.06 1018 7 11 0.00 0.00
8:53 am 08:53 Sunny 67 19.4 66 18.9 97 97 Calm 30.07 1018 10 16 0.00 0.00
9:53 am 09:53 Sunny 74 23.3 66 18.9 76 76 VRB 5 7 30.07 1018 10 16 0.00 0.00
10:53 am 10:53 Sunny 77 25 66 18.9 69 69 E 7 11 30.07 1018 10 16 0.00 0.00
11:53 am 11:53 Sunny 81 27.2 68 20 65 65 ENE 8 13 30.07 1018 10 16 0.00 0.00
12:53 pm 12:53 Sunny 81 27.2 65 18.3 58 58 ESE 6 9 30.05 1018 10 16 0.00 0.00
1:53 pm 13:53 Sunny 85 29.4 65 18.3 51 51 VRB 3 6 30.03 1017 10 16 0.00 0.00
2:53 pm 14:53 Mostly Sunny 85 29.4 62 16.7 46 46 NE 8 13 30.01 1016 10 16 0.00 0.00
3:53 pm 15:53 Sunny 86 30 63 17.2 46 46 VRB 7 11 30.00 1016 10 16 0.00 0.00
4:53 pm 16:53 Sunny 85 29.4 63 17.2 48 48 VRB 6 9 29.98 1015 10 16 0.00 0.00
5:53 pm 17:53 Sunny 84 28.9 64 17.8 51 51 NE 5 7 29.98 1015 10 16 0.00 0.00
6:53 pm 18:53 Sunny 78 25.6 68 20 71 71 Calm 29.98 1015 10 16 0.00 0.00
7:53 pm 19:53 Clear 70 21.1 68 20 93 93 Calm 29.99 1016 10 16 0.00 0.00
8:53 pm 20:53 Clear 68 20 67 19.4 96 96 Calm 29.99 1016 10 16 0.00 0.00
9:53 pm 21:53 Clear 67 19.4 66 18.9 97 97 Calm 29.99 1016 10 16 0.00 0.00
10:53 pm 22:53 Clear 65 18.3 65 18.3 100 100 Calm 30.00 1016 10 16 0.00 0.00
11:53 pm 23:53 Clear 65 18.3 65 18.3 100 100 Calm 30.00 1016 10 16 0.00 0.00

Powered by AerisWeather